JO-97
1 43803U 18099AX  25008.13800769  .00015905  00000-0  84733-3 0  9992
2 43803  97.4923  68.9733 0007559 324.9492  35.1242 15.15263191333649
Suomi 100
1 43804U 18099AY  25008.60799890  .00011458  00000-0  63964-3 0  9999
2 43804  97.4991  69.0707 0012709 320.8641  39.1671 15.13631821333672
ISAT
1 43879U 18111D   25008.73072264  .00020135  00000-0  90394-3 0  9998
2 43879  97.6057 280.6737 0011837  21.3620 338.8107 15.21147807328520
UWE-4
1 43880U 18111E   25008.72502395  .00016462  00000-0  79094-3 0  9994
2 43880  97.5992 280.0106 0015411  27.9647 332.2412 15.18806174328528
Sparrow
1 43881U 18111F   25008.74794328  .00020843  00000-0  91393-3 0  9990
2 43881  97.6174 283.0659 0010667  56.4458 303.7795 15.21959061328629
Prox-1
1 44339U 19036A   25008.59655542  .00013659  00000-0  19607-2 0  9997
2 44339  23.9994 336.3523 0008033 147.1416 212.9580 14.74723167295605
SONATE
1 44400U 19038Q   25008.55085115  .00050393  00000-0  78298-3 0  9995
2 44400  97.7122  20.4665 0013678  87.7917 272.4901 15.53693984305735
Taurus 1
1 44530U 19059C   25008.80081466  .00009069  00000-0  18191-2 0  9994
2 44530  98.5888 141.5991 0010210 144.7041 215.4837 14.61916321281734
Duchifat 3
1 44854U 19089C   25008.31895181  .00034851  00000-0  11380-2 0  9999
2 44854  36.9484 231.6709 0011025   1.3663 358.7117 15.30818449279550
TO-108
1 44881U 19093C   25008.51295640  .00001712  00000-0  20678-3 0  9991
2 44881  97.8101  87.2922 0014333  16.1926 343.9744 14.84968882273501
FloripaSat 1
1 44885U 19093G   25008.82466007  .00007662  00000-0  69828-3 0  9996
2 44885  97.8268  96.4009 0011164 357.0252   3.0900 14.95371993274046
RS-44
1 44909U 19096E   25008.57074277  .00000027  00000-0  72397-4 0  9996
2 44909  82.5236 328.2939 0216453 291.1680  66.6414 12.79737724235240
UPMSat 2
1 46276U 20061E   25008.56127728  .00036653  00000-0  67034-3 0  9993
2 46276  97.2692  80.0307 0001973  99.0715 261.0759 15.49277852241794
AmicalSat
1 46287U 20061R   25008.14786744  .02058733  46733-2  16899-2 0  9990
2 46287  97.2926  86.8148 0005326 289.6272  70.4439 16.15263014241431
SALSAT
1 46495U 20068K   25008.44724541  .00012110  00000-0  58213-3 0  9997
2 46495  97.8429 340.0466 0011662 338.1813  21.8922 15.18916191235405
CubeSX-Sirius-HSE
1 47951U 21022V   25008.56867160  .00054486  00000-0  10830-2 0  9998
2 47951  97.4384 274.7143 0011740 112.5775 247.6717 15.46714975210064
CubeSX-HSE
1 47952U 21022W   25008.81646523  .00055889  00000-0  10982-2 0  9991
2 47952  97.4380 275.1285 0011800 111.0579 249.1934 15.47041775210112
KSU-Cubesat
1 47954U 21022Y   25008.29353356  .00135135  00000-0  16904-2 0  9997
2 47954  97.4372 277.7604 0010923 101.2811 258.9673 15.59288231209954
GRBAlpha
1 47959U 21022AD  25008.77559896  .00054303  00000-0  10700-2 0  9997
2 47959  97.4380 275.2529 0011715 111.2582 248.9920 15.46969529208936
Orbicraft-Zorkiy
1 47960U 21022AE  25008.79302339  .00084792  00000-0  12745-2 0  9995
2 47960  97.4382 277.8328 0011069 104.2943 255.9540 15.54506135209767
TUBIN
1 48900U 21059X   25008.79938215  .00032399  00000-0  69398-3 0  9991
2 48900  97.6622 167.7433 0005470  73.3207 286.8641 15.44697544196497
LEDSAT
1 49069U 21073D   25008.14742346  .00044990  00000-0  10956-2 0  9996
2 49069  97.4119  85.6519 0013147 274.0283  85.9460 15.40707206187827
CUTE
1 49263U 21088D   25008.55316213  .00041530  00000-0  11254-2 0  9992
2 49263  97.4720  81.1483 0010745  77.3117 282.9328 15.37477042180983
TeikyoSat 4
1 49396U 21102B   25008.57519184  .00003172  00000-0  21874-3 0  9990
2 49396  97.4343  52.4100 0011193 298.9994  61.0112 15.06470113173651
Z-Sat
1 49399U 21102E   25008.61126410  .00006418  00000-0  37435-3 0  9990
2 49399  97.4047  54.7061 0017386 270.8284  89.0955 15.12168471173997
KOSEN 1
1 49402U 21102H   25008.60194257  .00009541  00000-0  48647-3 0  9995
2 49402  97.3963  57.0861 0015486 248.2544 111.7041 15.16856874174220
HO-113
1 50466U 21131B   25008.79690329  .00001099  00000-0  35967-3 0  9991
2 50466  98.5185  98.9156 0003521 219.7888 140.3042 14.40434310159598
IRIS-A
1 51044U 22002BN  25008.72215721  .00053634  00000-0  88500-3 0  9997
2 51044  97.3544  82.7105 0004480  23.0245 337.1207 15.52100366166053
Foresail-1
1 52766U 22057AL  25008.36064181  .00060439  00000-0  99835-3 0  9995
2 52766  97.5966 147.5809 0005578 115.4817 244.7012 15.52035249146036
SNUGLITE 2
1 52899U 22065F   25008.36831351  .00002693  00000-0  54135-3 0  9994
2 52899  98.1435 152.1259 0006807 225.0973 134.9677 14.62403195134234
IO-117
1 53106U 22080B   24357.45145358 -.00000003  00000-0  00000-0 0  9997
2 53106  70.1377 127.1156 0008284  64.6124 295.5392  6.42557665 57362
FO-118
1 54684U 22167C   25008.58024697  .00141025  00000-0  13938-2 0  9990
2 54684  97.6116 168.6337 0002386 134.9240 225.2213 15.65426176115978
SO-120
1 56992U 23084BU  25008.58976232  .00215669  00000-0  16720-2 0  9992
2 56992  97.5310 140.9749 0007124 331.4071  28.6799 15.71153128 87858
MRC-100
1 56993U 23084BV  25004.25947094  .12600048  25824-5  83387-3 0  9999
2 56993  97.5134 139.2748 0011223 298.8771  61.1402 16.40581581 87376
UmKA 1 (RS40S)
1 57172U 23091G   25008.85758493  .00007096  00000-0  41152-3 0  9999
2 57172  97.5841  65.1417 0016368 133.8877 226.3708 15.12363197 84528
CubeBel-2 (EU11S)
1 57175U 23091K   25008.81042115  .00010942  00000-0  59120-3 0  9993
2 57175  97.5845  65.4996 0014209 143.2797 216.9412 15.14793474 84544
VERONIKA
1 58261U 23174F   25008.57722290  .00045918  00000-0  11527-2 0  9993
2 58261  97.4365  89.5560 0008016 234.0083 126.0420 15.39833755 65090
KAFASAT
1 58317U 23174BP  25008.51925785  .00096010  00000-0  15281-2 0  9993
2 58317  97.4269  91.9051 0006101 210.4850 149.6049 15.52928749 65260
ENSO
1 58470U 23185J   25008.86532289  .00034059  00000-0  89802-3 0  9992
2 58470  97.3988  81.0493 0008486 268.9284  91.0989 15.38389644 61587
EIRSAT-1
1 58472U 23185L   25008.83801043  .00041282  00000-0  98409-3 0  9997
2 58472  97.3981  81.5045 0007920 268.4506  91.5833 15.41429877 61618
SONATE-2
1 59112U 24043Q   25008.84130492  .00017239  00000-0  63021-3 0  9994
2 59112  97.4949 138.0334 0011834 295.1922  64.8090 15.28084001 47109
MO-122
1 60209U 24125G   25008.55583819  .00019006  00000-0  68730-3 0  9993
2 60209  97.2966 222.5053 0021861 325.0198  34.9605 15.28253130 28673
GRBBeta
1 60237U 24128C   25008.10462408  .00006693  00000-0  54022-3 0  9995
2 60237  61.9925 250.2834 0034596  21.3907 338.8620 15.00309146 27306
Curium One
1 60242U 24128H   25008.38529779  .00010438  00000-0  81255-3 0  9996
2 60242  61.9827 249.2168 0034466  14.8320 345.3773 15.01257253 27352
ROBUSTA-3A
1 60243U 24128J   25008.08182758  .00011067  00000-0  86803-3 0  9999
2 60243  61.9892 250.6563 0032560  12.5249 347.6643 15.00973193 27301
CatSat
1 60246U 24125J   25008.58936075  .00014811  00000-0  56581-3 0  9993
2 60246  97.2765 223.1229 0045239 274.7282  84.8791 15.25747366 26777
CySat-1
1 61501U 98067WZ  25007.99830307  .12476033  12414-4  78718-3 0  9992
2 61501  51.6096   6.5034 0002121 115.6763 244.4483 16.41142165 14437
AO-123
1 61781U 24199AY  25008.85292316  .00011106  00000-0  44944-3 0  9996
2 61781  97.3778 238.6340 0018059  19.6933 340.4999 15.24715782 53734
